Weather History for Houma, LA

Change the Weather History Date:

Sunday, December 9, 2012

  Actual Average Record
Temperature  
Mean Temperature 65 °F -  
Max Temperature 73 °F 69 °F 84 °F (2007)
Min Temperature 57 °F 46 °F 28 °F (1973)
Growing Degree Days 15 (Base 50)    
Moisture  
Dew Point 67 °F    
Average Humidity 98    
Maximum Humidity 100    
Minimum Humidity 94    
Precipitation  
Precipitation 0.00 in - - ()
Sea Level Pressure  
Sea Level Pressure 29.94 in    
Wind  
Wind Speed 6 mph (SSE)    
Max Wind Speed 21 mph    
Max Gust Speed 17 mph    
Visibility 6 miles    
Events Fog , Rain    
Averages and records for this station are not official NWS values.
T = Trace of Precipitation, MM = Missing Value Source: NWS Daily Summary

Daily Weather History Graph

Daily Weather History Graph

Search for Another Location

Airport:

Trip Planner

Search our weather history database for the weather conditions in past years. The results will help you decide how hot, cold, wet, or windy it might be!

Date:

Astronomy

Dec. 09, 2012 Rise Set
Actual Time 6:46 AM CST 5:04 PM CST
Civil Twilight 6:20 AM CST 5:30 PM CST
Nautical Twilight 5:50 AM CST 5:59 PM CST
Astronomical Twilight 5:21 AM CST 6:28 PM CST
Moon 2:32 AM CST (12/9) 1:59 PM CST (12/9)
Length of Visible Light 11h 10m
Length of Day
10h 17m
Waning Crescent, 18% of the Moon is Illuminated
Dec 9
Waning Crescent
Dec 13
New
Dec 19
First Quarter
Dec 28
Full
Jan 4
Last Quarter

Hourly Weather History & Observations

Time (CST) Temp. Dew Point Humidity Pressure Visibility Wind Dir Wind Speed Gust Speed Precip Events Conditions
12:15 AM 59.4 °F 59.4 °F 100% 29.97 in 0.2 mi SE 4.6 mph - N/A Fog Fog
12:35 AM 57.9 °F 57.9 °F 100% 29.97 in 0.2 mi ESE 4.6 mph - N/A Fog Fog
1:15 AM 59.9 °F 59.9 °F 100% 29.96 in 4.0 mi SE 3.5 mph - N/A   Mostly Cloudy
1:35 AM 59.4 °F 59.4 °F 100% 29.96 in 4.0 mi SE 3.5 mph - N/A   Mostly Cloudy
1:55 AM 59.9 °F 59.9 °F 100% 29.96 in 3.0 mi Calm Calm - N/A   Mostly Cloudy
2:15 AM 60.3 °F 60.3 °F 100% 29.95 in 5.0 mi ESE 3.5 mph - N/A   Overcast
2:35 AM 60.6 °F 60.6 °F 100% 29.95 in 5.0 mi ESE 3.5 mph - N/A   Overcast
2:55 AM 60.4 °F 60.4 °F 100% 29.95 in 5.0 mi ESE 3.5 mph - N/A   Mostly Cloudy
3:15 AM 59.0 °F 59.0 °F 100% 29.95 in 7.0 mi East 3.5 mph - N/A   Scattered Clouds
3:35 AM 59.9 °F 59.9 °F 100% 29.95 in 7.0 mi East 3.5 mph - N/A   Clear
3:55 AM 59.2 °F 59.2 °F 100% 29.95 in 1.2 mi Calm Calm - N/A   Scattered Clouds
4:15 AM 58.1 °F 58.1 °F 100% 29.95 in 4.0 mi East 3.5 mph - N/A   Scattered Clouds
4:35 AM 59.2 °F 59.2 °F 100% 29.95 in 2.0 mi East 3.5 mph - N/A   Mostly Cloudy
5:50 AM 60.8 °F 60.8 °F 100% 29.97 in 5.0 mi ENE 4.6 mph - N/A   Scattered Clouds
6:50 AM 62.6 °F 62.6 °F 100% 29.99 in 5.0 mi East 4.6 mph - N/A   Mostly Cloudy
7:50 AM 66.2 °F 66.2 °F 100% 29.99 in 5.0 mi East 5.8 mph - N/A   Mostly Cloudy
8:55 AM 69.8 °F 69.8 °F 100% 30.00 in 5.0 mi SSE 8.1 mph - N/A   Mostly Cloudy
9:50 AM 73.4 °F 73.4 °F 100% 30.02 in 7.0 mi South 11.5 mph - N/A   Mostly Cloudy
10:55 AM 73.4 °F 71.6 °F 94% 29.99 in 7.0 mi SSE 11.5 mph - N/A   Mostly Cloudy
11:50 AM 73.4 °F 71.6 °F 94% 29.97 in 6.0 mi South 13.8 mph - N/A   Mostly Cloudy
12:50 PM 73.4 °F 71.6 °F 94% 29.96 in 6.0 mi SSE 13.8 mph - N/A   Mostly Cloudy
1:50 PM 73.4 °F 71.6 °F 94% 29.93 in 6.0 mi South 11.5 mph 17.3 mph N/A   Mostly Cloudy
2:48 PM 73.4 °F 71.6 °F 94% 29.93 in 6.0 mi SSE 20.7 mph - N/A   Mostly Cloudy
3:51 PM 73.4 °F 71.6 °F 94% 29.93 in 6.0 mi SSE 20.7 mph - N/A   Mostly Cloudy
4:51 PM 73.4 °F 71.6 °F 94% 29.93 in 6.0 mi South 11.5 mph - N/A   Mostly Cloudy
5:51 PM 71.6 °F 71.6 °F 100% 29.93 in 7.0 mi South 16.1 mph - N/A   Mostly Cloudy
6:15 PM 70.9 °F 70.9 °F 100% 29.93 in 7.0 mi South 8.1 mph - N/A   Mostly Cloudy
6:35 PM 70.9 °F 70.2 °F 98% 29.92 in 10.0 mi SSE 8.1 mph - N/A   Overcast
6:48 PM 71.6 °F 69.8 °F 94% 29.94 in 7.0 mi South 12.7 mph - N/A   Mostly Cloudy
6:55 PM 70.7 °F 69.8 °F 97% 29.93 in 7.0 mi SSE 6.9 mph - N/A   Overcast
7:15 PM 70.7 °F 69.8 °F 97% 29.93 in 7.0 mi SSE 8.1 mph - N/A   Overcast
7:35 PM 70.7 °F 68.9 °F 94% 29.92 in 10.0 mi South 6.9 mph - N/A   Overcast
7:55 PM 70.0 °F 68.9 °F 96% 29.92 in 10.0 mi South 6.9 mph - N/A Rain Light Rain
8:15 PM 69.8 °F 69.4 °F 99% 29.92 in 10.0 mi SSE 4.6 mph - N/A   Overcast
8:35 PM 70.2 °F 70.2 °F 100% 29.92 in 10.0 mi SSE 6.9 mph - N/A   Overcast
8:55 PM 70.0 °F 70.0 °F 100% 29.92 in 7.0 mi SSE 6.9 mph - N/A   Overcast
9:15 PM 69.8 °F 69.8 °F 100% 29.92 in 7.0 mi SSE 6.9 mph - N/A   Mostly Cloudy
9:35 PM 69.8 °F 69.8 °F 100% 29.92 in 7.0 mi SSE 6.9 mph - N/A   Overcast
10:15 PM 70.0 °F 70.0 °F 100% 29.92 in 7.0 mi SSE 10.4 mph - N/A   Overcast
10:35 PM 70.2 °F 70.2 °F 100% 29.92 in 7.0 mi South 10.4 mph - N/A   Overcast
10:55 PM 70.3 °F 70.3 °F 100% 29.92 in 7.0 mi South 10.4 mph - N/A   Overcast
11:15 PM 70.2 °F 70.2 °F 100% 29.92 in 7.0 mi South 11.5 mph 16.1 mph N/A   Overcast
11:35 PM 70.2 °F 70.2 °F 100% 29.92 in 7.0 mi South 10.4 mph - N/A   Overcast
11:55 PM 70.2 °F 70.2 °F 100% 29.91 in 7.0 mi South 9.2 mph - N/A   Overcast